Volver al catálogo

COSMOS 2251 DEB

ActivoLEO
NORAD 35979·DEBRIS·🇷🇺 Russia

Lanzado Jun 16, 1993 desde Plesetsk Cosmodrome

Loading…

Próximos Pases (próximas 24 horas)

TLE

ObsoletoSource: Space-Track

Época: Sep 4, 2026, 19:03 UTC

1 35979U 93036AVV 26247.79389509  .00002474  00000-0  34489-3 0  9993
2 35979  74.0067  76.6320 0057887 143.8202 228.3035 14.77161061925595

Sigue COSMOS 2251 DEB en tiempo real con AllMySat

Download on the App Store